FW6981 Weather Reports


time (UTC)temp
F
wind
direction
speed
knots
gust
knots
rain 1hr
in
rain 24hr
in
rain mn
in
humidity
%
barometer
mb
20260505193036 73 203 4.3 12.2 0.00 0.00 0.00 42 1017.0
20260505191537 73 128 1.7 14.8 0.00 0.00 0.00 42 1017.2
20260505190040 73 223 3.5 8.7 0.00 0.00 0.00 42 1017.4
20260505184535 75 154 5.2 13.9 0.00 0.00 0.00 40 1017.6
20260505183042 73 106 4.3 14.8 0.00 0.00 0.00 44 1017.7
20260505181541 72 186 2.6 7.0 0.00 0.00 0.00 41 1017.7
20260505180053 72 126 5.2 12.2 0.00 0.00 0.00 41 1017.9
20260505174544 72 84 2.6 10.4 0.00 0.00 0.00 42 1017.9
20260505173035 72 113 1.7 13.0 0.00 0.00 0.00 45 1018.2
20260505171537 72 288 3.5 13.0 0.00 0.00 0.00 45 1018.4
20260505170038 72 192 2.6 13.0 0.00 0.00 0.00 43 1018.3
20260505164542 71 152 5.2 15.6 0.00 0.00 0.00 39 1018.1
20260505163038 72 248 2.6 15.6 0.00 0.00 0.00 43 1018.0
20260505161537 71 181 3.5 9.6 0.00 0.00 0.00 44 1018.3
20260505153040 68 136 3.5 7.0 0.00 0.00 0.00 56 1018.6
20260505151540 68 119 3.5 7.0 0.00 0.00 0.00 52 1018.7
20260505124542 51 0 0.0 0.0 0.00 0.00 0.00 90 1017.5
20260505123041 49 0 0.0 0.9 0.00 0.00 0.00 91 1017.6
20260505121540 47 0 0.0 0.9 0.00 0.00 0.00 92 1017.5
20260505120038 46 0 0.0 0.9 0.00 0.00 0.00 92 1017.2
20260505114540 44 0 0.0 0.9 0.00 0.00 0.00 92 1017.3
20260505113048 43 0 0.0 0.0 0.00 0.00 0.00 92 1017.2
20260505111543 43 0 0.0 0.0 0.00 0.00 0.00 91 1016.7
20260505101556 42 0 0.0 0.0 0.00 0.00 0.00 91 1016.7
20260505100055 43 0 0.0 0.9 0.00 0.00 0.00 91 1016.7
20260505094544 43 0 0.0 0.0 0.00 0.00 0.00 90 1016.7
20260505093044 43 0 0.0 0.9 0.00 0.00 0.00 90 1016.6
20260505091539 44 0 0.0 0.9 0.00 0.00 0.00 90 1016.6
20260505090037 44 360 0.0 1.7 0.00 0.00 0.00 90 1016.7
20260505084535 44 0 0.0 0.9 0.00 0.00 0.00 90 1016.5
20260505083037 45 0 0.0 0.9 0.00 0.00 0.00 90 1016.5
20260505081556 45 360 0.0 0.9 0.00 0.00 0.00 90 1016.6
20260505080049 45 360 0.0 1.7 0.00 0.00 0.00 90 1016.4
20260505074539 46 0 0.0 0.0 0.00 0.00 0.00 90 1016.4
20260505073040 46 0 0.0 0.0 0.00 0.00 0.00 90 1016.5
20260505071548 46 0 0.0 0.0 0.00 0.00 0.00 90 1016.5
20260505070035 46 0 0.0 0.0 0.00 0.00 0.00 89 1016.5
20260505064539 46 0 0.0 0.0 0.00 0.00 0.00 89 1016.5
20260505063047 47 0 0.0 0.0 0.00 0.00 0.00 89 1016.7
20260505061541 47 0 0.0 0.0 0.00 0.00 0.00 89 1016.9
20260505060038 47 0 0.0 0.9 0.00 0.00 0.00 89 1016.9
20260505054544 47 0 0.0 1.7 0.00 0.00 0.00 89 1016.7
20260505053043 48 0 0.0 1.7 0.00 0.00 0.00 89 1016.9
20260505051543 48 0 0.0 1.7 0.00 0.00 0.00 89 1016.9
20260505041537 49 0 0.0 0.9 0.00 0.00 0.00 87 1016.8
20260505040043 50 0 0.0 0.9 0.00 0.00 0.00 87 1017.1
20260505034542 50 0 0.0 0.0 0.00 0.00 0.00 87 1017.0
20260505033038 50 0 0.0 0.0 0.00 0.00 0.00 86 1017.2
20260505031538 51 0 0.0 0.0 0.00 0.00 0.00 85 1017.3
20260505030044 51 0 0.0 0.0 0.00 0.00 0.00 84 1017.2
20260505024539 52 0 0.0 0.0 0.00 0.00 0.00 83 1017.2
20260505023037 53 0 0.0 0.0 0.00 0.00 0.00 82 1017.3
20260505021541 53 0 0.0 0.0 0.00 0.00 0.00 81 1016.9
20260505020039 54 0 0.0 0.0 0.00 0.00 0.00 80 1016.8
20260505014551 55 0 0.0 0.0 0.00 0.00 0.00 78 1016.8
20260505013040 56 0 0.0 0.0 0.00 0.00 0.00 76 1016.8
20260505011541 57 0 0.0 0.0 0.00 0.00 0.00 76 1016.8
20260505004536 59 0 0.0 0.0 0.00 0.00 0.00 72 1016.3
20260505003045 60 0 0.0 0.0 0.00 0.00 0.00 69 1016.4
20260505001540 62 0 0.0 0.0 0.00 0.00 0.00 66 1016.3
20260505000047 64 0 0.0 0.0 0.00 0.00 0.00 64 1016.3
20260504234536 66 0 0.0 0.9 0.00 0.00 0.00 58 1016.2
20260504233035 68 0 0.0 2.6 0.00 0.00 0.00 53 1016.2
20260504231540 69 0 0.9 4.3 0.00 0.00 0.00 48 1016.2
20260504230045 70 229 0.9 5.2 0.00 0.00 0.00 46 1016.1
20260504224543 70 183 0.9 5.2 0.00 0.00 0.00 47 1016.0
20260504223036 70 146 0.9 4.3 0.00 0.00 0.00 46 1016.0
20260504221548 71 130 1.7 5.2 0.00 0.00 0.00 46 1016.2
20260504220040 71 157 2.6 9.6 0.00 0.00 0.00 45 1016.3
20260504214543 72 0 1.7 10.4 0.00 0.00 0.00 45 1016.3
20260504213052 72 184 0.9 7.0 0.00 0.00 0.00 46 1016.3
20260504211540 72 227 2.6 11.3 0.00 0.00 0.00 44 1016.3
20260504210038 73 112 3.5 8.7 0.00 0.00 0.00 43 1016.3
20260504204534 73 126 2.6 9.6 0.00 0.00 0.00 43 1016.3
20260504203048 73 161 0.9 7.8 0.00 0.00 0.00 43 1016.6
20260504201535 73 81 2.6 7.0 0.00 0.00 0.00 41 1016.5
20260504200035 74 130 1.7 9.6 0.00 0.00 0.00 42 1016.5
20260504194541 74 211 1.7 7.0 0.00 0.00 0.00 39 1016.6